Tracking 34138 objects as of 17-May-2026
HD Live streaming from Space Station
objects crossing your sky now

OBJECT J

Track OBJECT J now!
10-day predictions


NORAD ID: 68635
Int'l Code: 2026-074J
Perigee: 482.5 km
Apogee: 515.6 km
Inclination: 60.0 °
Period: 94.4 minutes
Semi major axis: 6870 km
RCS: Unknown
Launch date: April 7, 2026
Source: United States (US)
Launch site: AIR FORCE WESTERN TEST RANGE (AFWTR)
Your satellite tracking list
Your tracking list is empty




NASA's NSSDC Master Catalog

Two Line Element Set (TLE):
1 68635U 26074J   26136.88039694  .00007969  00000-0  32908-3 0  9998
2 68635  60.0227 298.2643 0024079 358.3990   1.7009 15.24621894  6016
Source of the keplerian elements: AFSPC